Location: NJAA Observatory
(40.6819°N, 74.8979°W)
Time: 02:47:05
(UTC-04:00)

Transit 2A Rocket - Visible Passes

Search period start: 18 August 2017 00:00
Search period end: 28 August 2017 00:00
Orbit: 587 x 916 km, 66.7° (Epoch: 17 August)

Date Brightness Start Highest point End Pass type
(mag) Time Alt. Az. Time Alt. Az. Time Alt. Az.
20 Aug 7.4 05:27:22 10° SE 05:30:18 17° ESE 05:33:25 10° ENE visible
22 Aug 5.9 05:43:08 10° S 05:47:33 46° ESE 05:52:24 10° NE visible
23 Aug 6.8 05:01:36 10° SSE 05:05:24 25° ESE 05:09:29 10° NE visible
24 Aug 7.4 04:21:00 10° SE 04:23:22 14° ESE 04:25:50 10° ENE visible
25 Aug 5.0 05:18:09 10° SSW 05:22:47 71° ESE 05:27:55 10° NNE visible
26 Aug 6.0 04:36:58 14° S 04:40:32 38° ESE 04:45:15 10° NE visible
27 Aug 6.8 03:56:13 16° SE 03:58:26 21° ESE 04:02:11 10° ENE visible
27 Aug 5.3 05:36:09 11° SW 05:40:36 45° NW 05:45:38 10° NNE visible
